Time,TemperatureF,DewpointF,PressureIn,WindDirection,WindDirectionDegrees,WindSpeedMPH,WindSpeedGustMPH,Humidity,HourlyPrecipIn,Conditions,Clouds,dailyrainin,SoftwareType,DateUTC
2013-05-21 00:00:00,65.2,64.6,29.91,West,270,0.0,0.0,98,0.00,CLR,,0.00,WeatherDisplay:10.37,2013-05-21 04:00:00,
2013-05-21 00:01:00,65.2,64.6,29.91,West,270,0.0,0.0,98,0.00,CLR,,0.00,WeatherDisplay:10.37,2013-05-21 04:01:00,
2013-05-21 00:02:00,65.2,64.6,29.91,West,270,0.0,0.0,98,0.00,CLR,,0.00,WeatherDisplay:10.37,2013-05-21 04:02:00,
2013-05-21 00:04:00,65.0,64.4,29.90,West,270,0.0,0.0,98,0.00,CLR,,0.00,WeatherDisplay:10.37,2013-05-21 04:04:00,
2013-05-21 00:09:00,64.8,64.2,29.90,West,270,0.0,0.0,98,0.00,CLR,,0.00,WeatherDisplay:10.37,2013-05-21 04:09:00,
2013-05-21 00:14:00,64.7,64.1,29.90,West,270,0.0,0.0,98,0.00,CLR,,0.00,WeatherDisplay:10.37,2013-05-21 04:14:00,
2013-05-21 00:19:00,64.5,63.9,29.91,West,270,0.0,0.0,98,0.00,CLR,,0.00,WeatherDisplay:10.37,2013-05-21 04:19:00,
2013-05-21 00:24:00,64.3,63.7,29.91,West,270,0.0,0.0,98,0.00,CLR,,0.00,WeatherDisplay:10.37,2013-05-21 04:24:00,
2013-05-21 00:30:00,64.2,63.6,29.91,West,270,0.0,0.0,98,0.00,CLR,,0.00,WeatherDisplay:10.37,2013-05-21 04:30:00,
2013-05-21 00:35:00,64.0,63.4,29.91,West,270,0.0,0.0,98,0.00,CLR,,0.00,WeatherDisplay:10.37,2013-05-21 04:35:00,
2013-05-21 00:40:00,63.7,63.1,29.90,West,270,0.0,0.0,98,0.00,CLR,,0.00,WeatherDisplay:10.37,2013-05-21 04:40:00,
2013-05-21 00:45:00,63.5,62.9,29.90,West,270,0.0,0.0,98,0.00,CLR,,0.00,WeatherDisplay:10.37,2013-05-21 04:45:00,
2013-05-21 00:51:00,63.4,62.8,29.90,West,270,0.0,0.0,98,0.00,CLR,,0.00,WeatherDisplay:10.37,2013-05-21 04:51:00,
2013-05-21 00:56:00,63.4,62.8,29.90,West,270,0.0,0.0,98,0.00,CLR,,0.00,WeatherDisplay:10.37,2013-05-21 04:56:00,
2013-05-21 01:01:00,63.2,62.9,29.90,West,270,0.0,0.0,99,0.00,CLR,,0.00,WeatherDisplay:10.37,2013-05-21 05:01:00,
2013-05-21 01:06:00,63.2,62.6,29.91,West,270,0.0,0.0,98,0.00,CLR,,0.00,WeatherDisplay:10.37,2013-05-21 05:06:00,
2013-05-21 01:12:00,63.1,62.8,29.90,West,270,0.0,0.0,99,0.00,CLR,,0.00,WeatherDisplay:10.37,2013-05-21 05:12:00,
2013-05-21 01:17:00,62.9,62.6,29.90,West,270,0.0,0.0,99,0.00,CLR,,0.00,WeatherDisplay:10.37,2013-05-21 05:17:00,
2013-05-21 01:22:00,62.7,62.4,29.90,West,270,0.0,0.0,99,0.00,CLR,,0.00,WeatherDisplay:10.37,2013-05-21 05:22:00,
2013-05-21 01:27:00,62.6,62.3,29.90,West,270,0.0,0.0,99,0.00,CLR,,0.00,WeatherDisplay:10.37,2013-05-21 05:27:00,
2013-05-21 01:32:00,62.1,61.5,29.89,West,270,0.0,0.0,98,0.00,CLR,,0.00,WeatherDisplay:10.37,2013-05-21 05:32:00,
2013-05-21 01:38:00,62.1,61.8,29.88,West,270,0.0,0.0,99,0.00,CLR,,0.00,WeatherDisplay:10.37,2013-05-21 05:38:00,
2013-05-21 01:43:00,62.1,61.8,29.88,West,270,0.0,0.0,99,0.00,CLR,,0.00,WeatherDisplay:10.37,2013-05-21 05:43:00,
2013-05-21 01:48:00,62.1,61.8,29.88,West,270,0.0,0.0,99,0.00,CLR,,0.00,WeatherDisplay:10.37,2013-05-21 05:48:00,
2013-05-21 01:53:00,62.3,62.3,29.88,West,270,0.0,0.0,100,0.00,CLR,,0.00,WeatherDisplay:10.37,2013-05-21 05:53:00,
2013-05-21 01:58:00,62.4,62.4,29.88,West,270,0.0,0.0,100,0.00,CLR,,0.00,WeatherDisplay:10.37,2013-05-21 05:58:00,
2013-05-21 02:03:00,62.1,61.8,29.88,West,270,0.0,0.0,99,0.00,CLR,,0.00,WeatherDisplay:10.37,2013-05-21 06:03:00,
2013-05-21 02:09:00,62.0,62.0,29.88,West,270,0.0,0.0,100,0.00,CLR,,0.00,WeatherDisplay:10.37,2013-05-21 06:09:00,
2013-05-21 02:14:00,62.0,62.0,29.87,West,270,0.0,1.1,100,0.00,CLR,,0.00,WeatherDisplay:10.37,2013-05-21 06:14:00,
2013-05-21 02:19:00,62.0,62.0,29.87,West,270,0.0,0.0,100,0.00,CLR,,0.00,WeatherDisplay:10.37,2013-05-21 06:19:00,
2013-05-21 02:24:00,62.0,62.0,29.87,West,270,0.0,0.0,100,0.00,CLR,,0.00,WeatherDisplay:10.37,2013-05-21 06:24:00,
2013-05-21 02:29:00,62.0,62.0,29.87,West,270,0.0,0.0,100,0.00,CLR,,0.00,WeatherDisplay:10.37,2013-05-21 06:29:00,
2013-05-21 02:34:00,61.8,61.8,29.88,West,270,0.0,0.0,100,0.00,CLR,,0.00,WeatherDisplay:10.37,2013-05-21 06:34:00,
2013-05-21 02:40:00,61.8,61.8,29.88,West,270,0.0,0.0,100,0.00,CLR,,0.00,WeatherDisplay:10.37,2013-05-21 06:40:00,
2013-05-21 02:45:00,61.6,61.6,29.88,West,270,0.0,0.0,100,0.00,CLR,,0.00,WeatherDisplay:10.37,2013-05-21 06:45:00,
2013-05-21 02:50:00,61.6,61.6,29.88,West,270,0.0,0.0,100,0.00,CLR,,0.00,WeatherDisplay:10.37,2013-05-21 06:50:00,
2013-05-21 02:55:00,61.3,61.3,29.87,West,270,0.0,0.0,100,0.00,CLR,,0.00,WeatherDisplay:10.37,2013-05-21 06:55:00,
2013-05-21 03:00:00,61.2,61.2,29.87,West,270,0.0,0.0,100,0.00,CLR,,0.00,WeatherDisplay:10.37,2013-05-21 07:00:00,
2013-05-21 03:06:00,61.3,61.3,29.86,West,270,0.0,0.0,100,0.00,CLR,,0.00,WeatherDisplay:10.37,2013-05-21 07:06:00,
2013-05-21 03:11:00,61.3,61.3,29.86,West,270,0.0,0.0,100,0.00,CLR,,0.00,WeatherDisplay:10.37,2013-05-21 07:11:00,
2013-05-21 03:16:00,61.0,61.0,29.86,West,270,0.0,0.0,100,0.00,CLR,,0.00,WeatherDisplay:10.37,2013-05-21 07:16:00,
2013-05-21 03:21:00,61.0,61.0,29.86,West,270,0.0,0.0,100,0.00,CLR,,0.00,WeatherDisplay:10.37,2013-05-21 07:21:00,
2013-05-21 03:26:00,61.0,61.0,29.86,West,270,0.0,0.0,100,0.00,CLR,,0.00,WeatherDisplay:10.37,2013-05-21 07:26:00,
2013-05-21 03:32:00,61.0,61.0,29.85,West,270,0.0,1.1,100,0.00,CLR,,0.00,WeatherDisplay:10.37,2013-05-21 07:32:00,
2013-05-21 03:37:00,60.9,60.9,29.85,West,270,0.0,0.0,100,0.00,CLR,,0.00,WeatherDisplay:10.37,2013-05-21 07:37:00,
2013-05-21 03:42:00,60.9,60.9,29.85,West,270,0.0,0.0,100,0.00,CLR,,0.00,WeatherDisplay:10.37,2013-05-21 07:42:00,
2013-05-21 03:47:00,60.9,60.9,29.85,West,270,0.0,0.0,100,0.00,CLR,,0.00,WeatherDisplay:10.37,2013-05-21 07:47:00,
2013-05-21 03:52:00,60.9,60.9,29.85,West,270,0.0,0.0,100,0.00,CLR,,0.00,WeatherDisplay:10.37,2013-05-21 07:52:00,
2013-05-21 03:58:00,60.9,60.9,29.85,West,270,0.0,0.0,100,0.00,CLR,,0.00,WeatherDisplay:10.37,2013-05-21 07:58:00,
2013-05-21 04:03:00,61.0,61.0,29.85,West,270,0.0,0.0,100,0.00,CLR,,0.00,WeatherDisplay:10.37,2013-05-21 08:03:00,
2013-05-21 04:08:00,61.0,61.0,29.86,West,270,0.0,0.0,100,0.00,CLR,,0.00,WeatherDisplay:10.37,2013-05-21 08:08:00,
2013-05-21 04:13:00,61.2,61.2,29.86,West,270,0.0,0.0,100,0.00,CLR,,0.00,WeatherDisplay:10.37,2013-05-21 08:13:00,
2013-05-21 04:19:00,61.2,61.2,29.86,West,270,0.0,0.0,100,0.00,CLR,,0.00,WeatherDisplay:10.37,2013-05-21 08:19:00,
2013-05-21 04:24:00,61.2,61.2,29.87,West,270,0.0,0.0,100,0.00,CLR,,0.00,WeatherDisplay:10.37,2013-05-21 08:24:00,
2013-05-21 04:29:00,61.2,61.2,29.86,West,270,0.3,1.1,100,0.00,CLR,,0.00,WeatherDisplay:10.37,2013-05-21 08:29:00,
2013-05-21 04:34:00,61.0,61.0,29.86,West,270,0.0,0.0,100,0.00,CLR,,0.00,WeatherDisplay:10.37,2013-05-21 08:34:00,
2013-05-21 04:40:00,61.0,61.0,29.87,West,270,0.0,0.0,100,0.00,CLR,,0.00,WeatherDisplay:10.37,2013-05-21 08:40:00,
2013-05-21 04:45:00,61.0,61.0,29.87,West,270,0.0,0.0,100,0.00,CLR,,0.00,WeatherDisplay:10.37,2013-05-21 08:45:00,
2013-05-21 04:50:00,61.0,61.0,29.87,West,270,0.0,0.0,100,0.00,CLR,,0.00,WeatherDisplay:10.37,2013-05-21 08:50:00,
2013-05-21 04:55:00,61.0,61.0,29.88,West,270,0.0,0.0,100,0.00,CLR,,0.00,WeatherDisplay:10.37,2013-05-21 08:55:00,
2013-05-21 05:01:00,60.9,60.9,29.88,West,270,0.0,0.0,100,0.00,CLR,,0.00,WeatherDisplay:10.37,2013-05-21 09:01:00,
2013-05-21 05:06:00,60.7,60.7,29.88,West,270,0.0,0.0,100,0.00,,,0.00,WeatherDisplay:10.37,2013-05-21 09:06:00,
2013-05-21 05:11:00,60.7,60.7,29.88,West,270,0.0,0.0,100,0.00,,,0.00,WeatherDisplay:10.37,2013-05-21 09:11:00,
2013-05-21 05:16:00,60.5,60.5,29.87,West,270,0.0,0.0,100,0.00,,,0.00,WeatherDisplay:10.37,2013-05-21 09:16:00,
2013-05-21 05:21:00,60.7,60.7,29.87,West,270,0.0,0.0,100,0.00,,,0.00,WeatherDisplay:10.37,2013-05-21 09:21:00,
2013-05-21 05:26:00,60.7,60.7,29.87,West,270,0.0,0.0,100,0.00,,,0.00,WeatherDisplay:10.37,2013-05-21 09:26:00,
2013-05-21 05:31:00,60.7,60.7,29.87,West,270,0.0,0.0,100,0.00,,,0.00,WeatherDisplay:10.37,2013-05-21 09:31:00,
2013-05-21 05:36:00,60.9,60.9,29.88,West,270,0.0,0.0,100,0.00,,,0.00,WeatherDisplay:10.37,2013-05-21 09:36:00,
2013-05-21 05:42:00,60.9,60.9,29.88,West,270,0.0,0.0,100,0.00,,,0.00,WeatherDisplay:10.37,2013-05-21 09:42:00,
2013-05-21 05:47:00,60.9,60.9,29.87,West,270,0.0,0.0,100,0.00,,,0.00,WeatherDisplay:10.37,2013-05-21 09:47:00,
2013-05-21 05:52:00,60.7,60.7,29.87,West,270,0.0,0.0,100,0.00,,,0.00,WeatherDisplay:10.37,2013-05-21 09:52:00,
2013-05-21 05:57:00,60.7,60.7,29.87,West,270,0.0,0.0,100,0.00,,,0.00,WeatherDisplay:10.37,2013-05-21 09:57:00,
2013-05-21 06:02:00,60.7,60.7,29.87,West,270,0.0,0.0,100,0.00,,,0.00,WeatherDisplay:10.37,2013-05-21 10:02:00,
2013-05-21 06:07:00,60.7,60.7,29.87,West,270,0.0,0.0,100,0.00,,,0.00,WeatherDisplay:10.37,2013-05-21 10:07:00,
2013-05-21 06:13:00,60.7,60.7,29.86,West,270,0.0,0.0,100,0.00,,,0.00,WeatherDisplay:10.37,2013-05-21 10:13:00,
2013-05-21 06:18:00,60.7,60.7,29.87,West,270,0.0,0.0,100,0.00,,,0.00,WeatherDisplay:10.37,2013-05-21 10:18:00,
2013-05-21 06:23:00,60.9,60.9,29.86,West,270,0.1,1.1,100,0.00,,,0.00,WeatherDisplay:10.37,2013-05-21 10:23:00,
2013-05-21 06:28:00,60.9,60.9,29.86,West,270,0.0,0.0,100,0.00,,,0.00,WeatherDisplay:10.37,2013-05-21 10:28:00,
2013-05-21 06:34:00,60.9,60.9,29.87,West,270,0.0,1.1,100,0.00,,,0.00,WeatherDisplay:10.37,2013-05-21 10:34:00,
2013-05-21 06:39:00,60.7,60.7,29.87,West,270,0.0,0.0,100,0.00,,,0.00,WeatherDisplay:10.37,2013-05-21 10:39:00,
2013-05-21 06:44:00,60.9,60.9,29.87,West,270,0.0,0.0,100,0.00,,,0.00,WeatherDisplay:10.37,2013-05-21 10:44:00,
2013-05-21 06:49:00,60.9,60.9,29.87,West,270,0.0,0.0,100,0.00,,,0.00,WeatherDisplay:10.37,2013-05-21 10:49:00,
2013-05-21 06:54:00,61.0,61.0,29.88,West,270,0.1,1.0,100,0.00,,,0.00,WeatherDisplay:10.37,2013-05-21 10:54:00,
2013-05-21 06:59:00,61.0,61.0,29.88,West,270,0.4,2.3,100,0.00,,,0.00,WeatherDisplay:10.37,2013-05-21 10:59:00,
2013-05-21 07:04:00,61.2,61.2,29.88,West,270,0.2,1.1,100,0.00,,,0.00,WeatherDisplay:10.37,2013-05-21 11:04:00,
2013-05-21 07:09:00,61.3,61.3,29.88,West,263,0.2,2.3,100,0.00,,,0.00,WeatherDisplay:10.37,2013-05-21 11:09:00,
2013-05-21 07:14:00,61.6,61.6,29.88,West,263,0.0,0.0,100,0.00,,,0.00,WeatherDisplay:10.37,2013-05-21 11:14:00,
2013-05-21 07:19:00,61.6,61.6,29.88,West,263,0.0,0.0,100,0.00,,,0.00,WeatherDisplay:10.37,2013-05-21 11:19:00,
2013-05-21 07:24:00,62.0,62.0,29.87,West,261,0.1,1.1,100,0.00,,,0.00,WeatherDisplay:10.37,2013-05-21 11:24:00,
2013-05-21 07:30:00,62.1,62.1,29.88,WSW,237,0.0,2.3,100,0.00,,,0.00,WeatherDisplay:10.37,2013-05-21 11:30:00,
2013-05-21 07:35:00,62.3,62.3,29.88,WSW,237,0.0,0.0,100,0.00,,,0.00,WeatherDisplay:10.37,2013-05-21 11:35:00,
2013-05-21 07:40:00,62.6,62.6,29.88,WSW,237,0.0,0.0,100,0.00,,,0.00,WeatherDisplay:10.37,2013-05-21 11:40:00,
2013-05-21 07:45:00,62.7,62.7,29.88,WSW,237,0.0,1.1,100,0.00,,,0.00,WeatherDisplay:10.37,2013-05-21 11:45:00,
2013-05-21 07:50:00,62.9,62.9,29.88,WSW,237,0.0,0.0,100,0.00,,,0.00,WeatherDisplay:10.37,2013-05-21 11:50:00,
2013-05-21 07:55:00,63.2,63.2,29.88,WSW,237,0.1,0.0,100,0.00,,,0.00,WeatherDisplay:10.37,2013-05-21 11:55:00,
2013-05-21 08:00:00,63.4,63.4,29.88,WSW,237,0.0,0.0,100,0.00,,,0.00,WeatherDisplay:10.37,2013-05-21 12:00:00,
2013-05-21 08:05:00,63.5,63.5,29.88,WSW,237,0.0,0.0,100,0.00,,,0.00,WeatherDisplay:10.37,2013-05-21 12:05:00,
2013-05-21 08:11:00,63.5,63.5,29.88,WSW,237,0.0,0.0,100,0.00,,,0.00,WeatherDisplay:10.37,2013-05-21 12:11:00,
2013-05-21 08:16:00,63.9,63.9,29.88,WSW,237,0.0,0.0,100,0.00,,,0.00,WeatherDisplay:10.37,2013-05-21 12:16:00,
2013-05-21 08:21:00,64.3,64.3,29.88,WSW,237,0.0,0.0,100,0.00,,,0.00,WeatherDisplay:10.37,2013-05-21 12:21:00,
2013-05-21 08:26:00,65.0,65.0,29.88,WSW,237,0.4,2.0,100,0.00,,,0.00,WeatherDisplay:10.37,2013-05-21 12:26:00,
2013-05-21 08:31:00,65.0,65.0,29.88,ENE,63,1.7,2.3,100,0.00,,,0.00,WeatherDisplay:10.37,2013-05-21 12:31:00,
2013-05-21 08:36:00,65.3,65.3,29.88,ENE,63,0.7,2.3,100,0.00,,,0.00,WeatherDisplay:10.37,2013-05-21 12:36:00,
2013-05-21 08:42:00,65.8,65.8,29.88,ESE,123,0.2,1.1,100,0.00,,,0.00,WeatherDisplay:10.37,2013-05-21 12:42:00,
2013-05-21 08:47:00,66.1,66.1,29.88,ESE,115,0.0,1.1,100,0.00,,,0.00,WeatherDisplay:10.37,2013-05-21 12:47:00,
2013-05-21 08:52:00,66.4,66.4,29.88,WSW,244,0.7,2.3,100,0.00,,,0.00,WeatherDisplay:10.37,2013-05-21 12:52:00,
2013-05-21 08:57:00,67.1,67.1,29.87,WSW,244,0.0,0.0,100,0.00,,,0.00,WeatherDisplay:10.37,2013-05-21 12:57:00,
2013-05-21 09:02:00,67.8,67.8,29.87,SW,227,0.0,1.1,100,0.00,,,0.00,WeatherDisplay:10.37,2013-05-21 13:02:00,
2013-05-21 09:07:00,68.1,67.5,29.87,SW,227,0.2,1.1,98,0.00,CLR,,0.00,WeatherDisplay:10.37,2013-05-21 13:07:00,
2013-05-21 09:12:00,68.9,68.3,29.87,SW,233,0.1,1.1,98,0.00,CLR,,0.00,WeatherDisplay:10.37,2013-05-21 13:12:00,
2013-05-21 09:18:00,69.9,69.0,29.86,WNW,289,0.2,1.1,97,0.00,CLR,,0.00,WeatherDisplay:10.37,2013-05-21 13:18:00,
2013-05-21 09:23:00,70.6,68.5,29.86,South,180,0.3,1.1,93,0.00,CLR,,0.00,WeatherDisplay:10.37,2013-05-21 13:23:00,
2013-05-21 09:28:00,71.8,68.7,29.86,SSW,207,0.3,3.5,90,0.00,CLR,,0.00,WeatherDisplay:10.37,2013-05-21 13:28:00,
2013-05-21 09:33:00,72.8,68.4,29.86,WSW,246,0.8,3.5,86,0.00,CLR,,0.00,WeatherDisplay:10.37,2013-05-21 13:33:00,
2013-05-21 09:38:00,73.7,68.6,29.86,WSW,253,0.3,1.1,84,0.00,CLR,,0.00,WeatherDisplay:10.37,2013-05-21 13:38:00,
2013-05-21 09:43:00,74.7,68.5,29.86,WSW,253,0.6,2.3,81,0.00,CLR,,0.00,WeatherDisplay:10.37,2013-05-21 13:43:00,
2013-05-21 09:48:00,75.6,70.1,29.86,WSW,250,0.2,1.1,83,0.00,CLR,,0.00,WeatherDisplay:10.37,2013-05-21 13:48:00,
2013-05-21 09:54:00,76.1,69.1,29.86,SSW,211,2.5,4.0,79,0.00,CLR,,0.00,WeatherDisplay:10.37,2013-05-21 13:54:00,
2013-05-21 09:59:00,76.5,68.4,29.86,WSW,241,0.3,3.5,76,0.00,CLR,,0.00,WeatherDisplay:10.37,2013-05-21 13:59:00,
2013-05-21 10:04:00,77.0,68.5,29.86,WNW,297,2.7,3.5,75,0.00,CLR,,0.00,WeatherDisplay:10.37,2013-05-21 14:04:00,
2013-05-21 10:09:00,77.4,69.6,29.86,SW,223,2.5,4.6,77,0.00,CLR,,0.00,WeatherDisplay:10.37,2013-05-21 14:09:00,
2013-05-21 10:14:00,78.1,69.5,29.86,NW,309,0.9,3.5,75,0.00,CLR,,0.00,WeatherDisplay:10.37,2013-05-21 14:14:00,
2013-05-21 10:20:00,79.0,70.8,29.86,West,277,0.6,2.3,76,0.00,CLR,,0.00,WeatherDisplay:10.37,2013-05-21 14:20:00,
2013-05-21 10:25:00,79.6,69.4,29.86,SW,229,2.8,4.6,71,0.00,CLR,,0.00,WeatherDisplay:10.37,2013-05-21 14:25:00,
2013-05-21 10:30:00,80.3,70.0,29.85,SW,223,2.3,3.5,71,0.00,CLR,,0.00,WeatherDisplay:10.37,2013-05-21 14:30:00,
2013-05-21 10:35:00,80.1,69.8,29.85,SW,216,0.4,1.1,71,0.00,CLR,,0.00,WeatherDisplay:10.37,2013-05-21 14:35:00,
2013-05-21 10:40:00,80.1,70.3,29.85,South,190,0.7,2.3,72,0.00,CLR,,0.00,WeatherDisplay:10.37,2013-05-21 14:40:00,
2013-05-21 10:46:00,80.3,69.2,29.85,WSW,257,1.2,2.3,69,0.00,CLR,,0.00,WeatherDisplay:10.37,2013-05-21 14:46:00,
2013-05-21 10:51:00,80.3,69.6,29.85,WNW,292,0.0,1.1,70,0.00,CLR,,0.00,WeatherDisplay:10.37,2013-05-21 14:51:00,
2013-05-21 10:56:00,80.5,70.6,29.84,SW,229,0.8,2.3,72,0.00,CLR,,0.00,WeatherDisplay:10.37,2013-05-21 14:56:00,
2013-05-21 11:01:00,80.7,70.4,29.84,NW,311,1.3,5.0,71,0.00,CLR,,0.00,WeatherDisplay:10.37,2013-05-21 15:01:00,
2013-05-21 11:06:00,81.1,69.1,29.84,SW,217,0.8,4.0,67,0.00,CLR,,0.00,WeatherDisplay:10.37,2013-05-21 15:06:00,
2013-05-21 11:11:00,81.2,70.1,29.84,NW,308,3.8,5.8,69,0.00,CLR,,0.00,WeatherDisplay:10.37,2013-05-21 15:11:00,
2013-05-21 11:16:00,81.4,70.2,29.84,WNW,290,1.9,4.6,69,0.00,CLR,,0.00,WeatherDisplay:10.37,2013-05-21 15:16:00,
2013-05-21 11:21:00,81.8,68.9,29.84,NW,310,1.5,3.5,65,0.00,CLR,,0.00,WeatherDisplay:10.37,2013-05-21 15:21:00,
2013-05-21 11:26:00,81.8,68.9,29.84,WNW,294,2.9,4.6,65,0.00,CLR,,0.00,WeatherDisplay:10.37,2013-05-21 15:26:00,
2013-05-21 11:32:00,82.0,71.2,29.83,SW,236,0.1,2.3,70,0.00,CLR,,0.00,WeatherDisplay:10.37,2013-05-21 15:32:00,
2013-05-21 11:37:00,82.4,70.8,29.83,NNW,346,1.5,3.5,68,0.00,CLR,,0.00,WeatherDisplay:10.37,2013-05-21 15:37:00,
2013-05-21 11:42:00,82.8,69.4,29.83,WSW,252,1.7,5.0,64,0.00,CLR,,0.00,WeatherDisplay:10.37,2013-05-21 15:42:00,
2013-05-21 11:47:00,83.4,70.4,29.83,SW,229,0.8,3.5,65,0.00,CLR,,0.00,WeatherDisplay:10.37,2013-05-21 15:47:00,
2013-05-21 11:52:00,83.6,70.6,29.82,WNW,300,1.9,3.0,65,0.00,CLR,,0.00,WeatherDisplay:10.37,2013-05-21 15:52:00,
2013-05-21 11:57:00,84.1,70.6,29.82,WNW,296,0.3,2.3,64,0.00,CLR,,0.00,WeatherDisplay:10.37,2013-05-21 15:57:00,
2013-05-21 12:02:00,84.1,69.7,29.82,SSE,154,1.7,3.5,62,0.00,CLR,,0.00,WeatherDisplay:10.37,2013-05-21 16:02:00,
2013-05-21 12:07:00,84.7,69.8,29.81,SSW,196,2.1,3.5,61,0.00,CLR,,0.00,WeatherDisplay:10.37,2013-05-21 16:07:00,
2013-05-21 12:12:00,84.5,69.6,29.81,WSW,252,2.0,3.5,61,0.00,CLR,,0.00,WeatherDisplay:10.37,2013-05-21 16:12:00,
2013-05-21 12:18:00,84.3,69.4,29.82,NNE,24,0.9,3.5,61,0.00,CLR,,0.00,WeatherDisplay:10.37,2013-05-21 16:18:00,
2013-05-21 12:23:00,84.7,70.2,29.81,West,267,2.0,3.0,62,0.00,CLR,,0.00,WeatherDisplay:10.37,2013-05-21 16:23:00,
2013-05-21 12:28:00,85.1,69.7,29.81,WNW,293,1.3,3.5,60,0.00,CLR,,0.00,WeatherDisplay:10.37,2013-05-21 16:28:00,
2013-05-21 12:33:00,85.5,69.5,29.81,SW,219,4.7,6.9,59,0.00,CLR,,0.00,WeatherDisplay:10.37,2013-05-21 16:33:00,
2013-05-21 12:38:00,85.3,70.3,29.81,WSW,257,2.8,4.6,61,0.00,CLR,,0.00,WeatherDisplay:10.37,2013-05-21 16:38:00,
2013-05-21 12:44:00,85.5,69.5,29.81,SW,224,0.6,4.6,59,0.00,CLR,,0.00,WeatherDisplay:10.37,2013-05-21 16:44:00,
2013-05-21 12:49:00,85.9,70.9,29.81,SW,230,0.6,2.3,61,0.00,CLR,,0.00,WeatherDisplay:10.37,2013-05-21 16:49:00,
2013-05-21 12:54:00,86.3,70.3,29.81,SSE,167,1.5,5.8,59,0.00,CLR,,0.00,WeatherDisplay:10.37,2013-05-21 16:54:00,
2013-05-21 12:59:00,86.3,69.3,29.81,West,270,2.0,4.6,57,0.00,CLR,,0.00,WeatherDisplay:10.37,2013-05-21 16:59:00,
2013-05-21 13:04:00,86.5,70.0,29.81,NW,310,1.3,3.5,58,0.00,CLR,,0.00,WeatherDisplay:10.37,2013-05-21 17:04:00,
2013-05-21 13:09:00,87.0,69.9,29.80,WNW,298,3.2,4.0,57,0.00,CLR,,0.00,WeatherDisplay:10.37,2013-05-21 17:09:00,
2013-05-21 13:15:00,87.2,70.6,29.80,SW,233,3.5,9.2,58,0.00,CLR,,0.00,WeatherDisplay:10.37,2013-05-21 17:15:00,
2013-05-21 13:20:00,87.6,70.5,29.80,West,269,2.3,3.5,57,0.00,CLR,,0.00,WeatherDisplay:10.37,2013-05-21 17:20:00,
2013-05-21 13:25:00,87.6,69.4,29.80,WNW,288,1.6,5.8,55,0.00,CLR,,0.00,WeatherDisplay:10.37,2013-05-21 17:25:00,
2013-05-21 13:30:00,87.8,70.1,29.80,SSW,212,1.7,3.5,56,0.00,CLR,,0.00,WeatherDisplay:10.37,2013-05-21 17:30:00,
2013-05-21 13:35:00,88.2,70.5,29.80,WNW,284,3.1,5.8,56,0.00,CLR,,0.00,WeatherDisplay:10.37,2013-05-21 17:35:00,
2013-05-21 13:41:00,88.2,69.5,29.80,West,272,2.4,5.8,54,0.00,CLR,,0.00,WeatherDisplay:10.37,2013-05-21 17:41:00,
2013-05-21 13:46:00,88.2,70.5,29.79,SSW,212,0.2,1.1,56,0.00,CLR,,0.00,WeatherDisplay:10.37,2013-05-21 17:46:00,
2013-05-21 13:51:00,88.0,69.8,29.79,SW,215,3.7,8.1,55,0.00,CLR,,0.00,WeatherDisplay:10.37,2013-05-21 17:51:00,
2013-05-21 13:56:00,88.0,68.2,29.78,WNW,291,2.9,6.9,52,0.00,CLR,,0.00,WeatherDisplay:10.37,2013-05-21 17:56:00,
2013-05-21 14:01:00,88.2,68.9,29.78,West,275,0.7,2.3,53,0.00,CLR,,0.00,WeatherDisplay:10.37,2013-05-21 18:01:00,
2013-05-21 14:07:00,88.4,71.2,29.78,SW,232,2.3,4.6,57,0.00,CLR,,0.00,WeatherDisplay:10.37,2013-05-21 18:07:00,
2013-05-21 14:12:00,88.4,69.1,29.78,WNW,299,0.3,1.1,53,0.00,CLR,,0.00,WeatherDisplay:10.37,2013-05-21 18:12:00,
2013-05-21 14:17:00,88.6,68.2,29.78,NW,304,2.9,4.0,51,0.00,CLR,,0.00,WeatherDisplay:10.37,2013-05-21 18:17:00,
2013-05-21 14:22:00,88.6,68.2,29.78,SW,215,1.5,5.8,51,0.00,CLR,,0.00,WeatherDisplay:10.37,2013-05-21 18:22:00,
2013-05-21 14:27:00,88.8,67.2,29.78,West,281,2.4,9.2,49,0.00,CLR,,0.00,WeatherDisplay:10.37,2013-05-21 18:27:00,
2013-05-21 14:32:00,89.5,67.8,29.78,SSW,210,5.2,6.9,49,0.00,CLR,,0.00,WeatherDisplay:10.37,2013-05-21 18:32:00,
2013-05-21 14:38:00,89.7,69.2,29.78,SW,231,1.1,3.0,51,0.00,CLR,,0.00,WeatherDisplay:10.37,2013-05-21 18:38:00,
2013-05-21 14:43:00,89.5,70.1,29.78,SW,230,1.3,3.5,53,0.00,CLR,,0.00,WeatherDisplay:10.37,2013-05-21 18:43:00,
2013-05-21 14:48:00,89.5,70.7,29.78,WSW,246,0.5,3.5,54,0.00,CLR,,0.00,WeatherDisplay:10.37,2013-05-21 18:48:00,
2013-05-21 14:53:00,89.5,69.0,29.78,West,260,5.7,11.5,51,0.00,CLR,,0.00,WeatherDisplay:10.37,2013-05-21 18:53:00,
2013-05-21 14:59:00,89.3,68.2,29.78,SW,229,5.0,8.1,50,0.00,CLR,,0.00,WeatherDisplay:10.37,2013-05-21 18:59:00,
2013-05-21 15:04:00,89.0,67.9,29.77,SSW,205,3.2,5.8,50,0.00,CLR,,0.00,WeatherDisplay:10.37,2013-05-21 19:04:00,
2013-05-21 15:09:00,89.0,69.6,29.77,WSW,247,2.6,9.2,53,0.00,CLR,,0.00,WeatherDisplay:10.37,2013-05-21 19:09:00,
2013-05-21 15:14:00,89.0,69.1,29.77,SSW,211,2.6,4.6,52,0.00,CLR,,0.00,WeatherDisplay:10.37,2013-05-21 19:14:00,
2013-05-21 15:19:00,88.6,68.7,29.77,SSW,208,1.9,4.6,52,0.00,CLR,,0.00,WeatherDisplay:10.37,2013-05-21 19:19:00,
2013-05-21 15:24:00,87.6,68.9,29.77,South,184,0.9,2.3,54,0.00,CLR,,0.00,WeatherDisplay:10.37,2013-05-21 19:24:00,
2013-05-21 15:30:00,87.2,69.6,29.77,SSW,209,2.6,4.6,56,0.00,CLR,,0.00,WeatherDisplay:10.37,2013-05-21 19:30:00,
2013-05-21 15:35:00,87.6,69.4,29.76,SSE,160,1.0,3.5,55,0.00,CLR,,0.00,WeatherDisplay:10.37,2013-05-21 19:35:00,
2013-05-21 15:40:00,88.2,70.5,29.76,WSW,258,0.2,1.1,56,0.00,CLR,,0.00,WeatherDisplay:10.37,2013-05-21 19:40:00,
2013-05-21 15:46:00,88.8,69.5,29.75,SSE,167,2.6,3.0,53,0.00,CLR,,0.00,WeatherDisplay:10.37,2013-05-21 19:46:00,
2013-05-21 15:51:00,88.6,69.8,29.75,SSW,206,2.8,5.8,54,0.00,CLR,,0.00,WeatherDisplay:10.37,2013-05-21 19:51:00,
2013-05-21 15:56:00,88.6,70.4,29.75,SW,230,0.0,1.1,55,0.00,CLR,,0.00,WeatherDisplay:10.37,2013-05-21 19:56:00,
2013-05-21 16:01:00,88.6,69.8,29.75,SSW,199,0.8,5.0,54,0.00,CLR,,0.00,WeatherDisplay:10.37,2013-05-21 20:01:00,
2013-05-21 16:06:00,88.8,69.5,29.75,SSW,211,3.6,9.2,53,0.00,CLR,,0.00,WeatherDisplay:10.37,2013-05-21 20:06:00,
2013-05-21 16:12:00,88.6,69.3,29.75,West,263,1.9,3.5,53,0.00,CLR,,0.00,WeatherDisplay:10.37,2013-05-21 20:12:00,
2013-05-21 16:17:00,88.4,70.2,29.75,SSW,205,3.4,6.9,55,0.00,CLR,,0.00,WeatherDisplay:10.37,2013-05-21 20:17:00,
2013-05-21 16:22:00,88.2,70.0,29.75,SW,235,2.5,4.6,55,0.00,CLR,,0.00,WeatherDisplay:10.37,2013-05-21 20:22:00,
2013-05-21 16:27:00,87.6,69.4,29.75,SW,221,1.0,1.1,55,0.00,CLR,,0.00,WeatherDisplay:10.37,2013-05-21 20:27:00,
2013-05-21 16:32:00,87.2,69.6,29.75,SSE,165,2.4,10.4,56,0.00,CLR,,0.00,WeatherDisplay:10.37,2013-05-21 20:32:00,
2013-05-21 16:38:00,86.5,69.5,29.75,SSW,198,2.1,3.5,57,0.00,CLR,,0.00,WeatherDisplay:10.37,2013-05-21 20:38:00,
2013-05-21 16:43:00,86.5,70.0,29.74,SSW,194,2.9,9.2,58,0.00,CLR,,0.00,WeatherDisplay:10.37,2013-05-21 20:43:00,
2013-05-21 16:48:00,86.7,69.1,29.74,West,277,1.1,3.5,56,0.00,CLR,,0.00,WeatherDisplay:10.37,2013-05-21 20:48:00,
2013-05-21 16:54:00,87.0,68.9,29.74,SW,220,4.3,10.4,55,0.00,CLR,,0.00,WeatherDisplay:10.37,2013-05-21 20:54:00,
2013-05-21 16:59:00,86.5,69.5,29.74,SW,230,4.1,9.2,57,0.00,CLR,,0.00,WeatherDisplay:10.37,2013-05-21 20:59:00,
2013-05-21 17:04:00,86.3,68.8,29.74,South,176,2.7,6.9,56,0.00,CLR,,0.00,WeatherDisplay:10.37,2013-05-21 21:04:00,
2013-05-21 17:09:00,86.3,69.3,29.74,West,261,4.7,9.2,57,0.00,CLR,,0.00,WeatherDisplay:10.37,2013-05-21 21:09:00,
2013-05-21 17:14:00,86.1,69.1,29.74,NW,325,3.6,4.6,57,0.00,CLR,,0.00,WeatherDisplay:10.37,2013-05-21 21:14:00,
2013-05-21 17:19:00,86.1,69.1,29.74,WNW,298,1.4,3.5,57,0.00,CLR,,0.00,WeatherDisplay:10.37,2013-05-21 21:19:00,
2013-05-21 17:25:00,86.5,69.5,29.75,West,259,0.8,3.5,57,0.00,CLR,,0.00,WeatherDisplay:10.37,2013-05-21 21:25:00,
2013-05-21 17:30:00,86.5,70.5,29.75,WSW,238,1.5,2.3,59,0.00,CLR,,0.00,WeatherDisplay:10.37,2013-05-21 21:30:00,
2013-05-21 17:35:00,86.7,70.2,29.75,WSW,239,2.3,3.5,58,0.00,CLR,,0.00,WeatherDisplay:10.37,2013-05-21 21:35:00,
2013-05-21 17:40:00,86.5,68.9,29.74,WSW,242,4.1,11.5,56,0.00,CLR,,0.00,WeatherDisplay:10.37,2013-05-21 21:40:00,
2013-05-21 17:45:00,86.3,69.8,29.74,SW,224,2.4,5.8,58,0.00,CLR,,0.00,WeatherDisplay:10.37,2013-05-21 21:45:00,
2013-05-21 17:50:00,86.1,70.1,29.74,South,190,3.0,5.8,59,0.00,CLR,,0.00,WeatherDisplay:10.37,2013-05-21 21:50:00,
2013-05-21 17:55:00,85.7,69.7,29.74,SW,225,1.3,2.3,59,0.00,CLR,,0.00,WeatherDisplay:10.37,2013-05-21 21:55:00,
2013-05-21 18:00:00,85.5,69.5,29.75,SW,221,1.2,5.8,59,0.00,CLR,,0.00,WeatherDisplay:10.37,2013-05-21 22:00:00,
2013-05-21 18:06:00,85.3,70.3,29.74,West,273,1.2,3.5,61,0.00,CLR,,0.00,WeatherDisplay:10.37,2013-05-21 22:06:00,
2013-05-21 18:11:00,84.9,70.4,29.74,SSW,213,2.6,10.0,62,0.00,CLR,,0.00,WeatherDisplay:10.37,2013-05-21 22:11:00,
2013-05-21 18:16:00,84.7,71.2,29.74,East,94,1.1,3.5,64,0.00,CLR,,0.00,WeatherDisplay:10.37,2013-05-21 22:16:00,
2013-05-21 18:21:00,84.5,71.4,29.74,WSW,243,2.2,5.8,65,0.00,CLR,,0.00,WeatherDisplay:10.37,2013-05-21 22:21:00,
2013-05-21 18:26:00,84.3,70.8,29.75,SSW,194,2.1,3.5,64,0.00,CLR,,0.00,WeatherDisplay:10.37,2013-05-21 22:26:00,
2013-05-21 18:32:00,84.0,71.0,29.75,SSE,162,4.6,9.2,65,0.00,CLR,,0.00,WeatherDisplay:10.37,2013-05-21 22:32:00,
2013-05-21 18:37:00,83.8,70.8,29.75,South,189,3.3,9.2,65,0.00,CLR,,0.00,WeatherDisplay:10.37,2013-05-21 22:37:00,
2013-05-21 18:42:00,83.4,71.3,29.76,South,184,2.9,4.6,67,0.00,CLR,,0.00,WeatherDisplay:10.37,2013-05-21 22:42:00,
2013-05-21 18:48:00,83.2,71.5,29.75,SSE,160,3.1,4.6,68,0.00,CLR,,0.00,WeatherDisplay:10.37,2013-05-21 22:48:00,
2013-05-21 18:58:00,82.8,70.7,29.75,SSW,194,0.2,1.1,67,0.00,CLR,,0.00,WeatherDisplay:10.37,2013-05-21 22:58:00,
2013-05-21 19:04:00,82.6,71.0,29.76,South,185,2.8,5.8,68,0.00,CLR,,0.00,WeatherDisplay:10.37,2013-05-21 23:04:00,
2013-05-21 19:09:00,82.4,70.8,29.76,SSE,161,2.1,3.5,68,0.00,CLR,,0.00,WeatherDisplay:10.37,2013-05-21 23:09:00,
2013-05-21 19:14:00,82.2,71.0,29.77,SSE,153,2.1,4.0,69,0.00,CLR,,0.00,WeatherDisplay:10.37,2013-05-21 23:14:00,
2013-05-21 19:20:00,81.8,70.2,29.77,ESE,104,0.3,1.1,68,0.00,CLR,,0.00,WeatherDisplay:10.37,2013-05-21 23:20:00,
2013-05-21 19:25:00,81.6,70.9,29.77,SSW,205,0.1,2.3,70,0.00,CLR,,0.00,WeatherDisplay:10.37,2013-05-21 23:25:00,
2013-05-21 19:30:00,81.2,70.5,29.76,ESE,104,0.9,4.6,70,0.00,CLR,,0.00,WeatherDisplay:10.37,2013-05-21 23:30:00,
2013-05-21 19:35:00,80.9,70.2,29.76,SSE,167,3.5,5.8,70,0.00,CLR,,0.00,WeatherDisplay:10.37,2013-05-21 23:35:00,
2013-05-21 19:40:00,80.7,70.4,29.76,South,169,0.0,1.1,71,0.00,CLR,,0.00,WeatherDisplay:10.37,2013-05-21 23:40:00,
2013-05-21 19:45:00,80.5,70.2,29.76,South,169,0.0,1.1,71,0.00,CLR,,0.00,WeatherDisplay:10.37,2013-05-21 23:45:00,
2013-05-21 19:50:00,80.3,70.4,29.77,South,169,0.0,0.0,72,0.00,CLR,,0.00,WeatherDisplay:10.37,2013-05-21 23:50:00,
2013-05-21 19:56:00,80.1,69.8,29.77,SSE,163,0.4,3.5,71,0.00,CLR,,0.00,WeatherDisplay:10.37,2013-05-21 23:56:00,
2013-05-21 20:01:00,79.9,69.7,29.77,SSE,163,0.0,0.0,71,0.00,CLR,,0.00,WeatherDisplay:10.37,2013-05-22 00:01:00,
2013-05-21 20:06:00,79.8,69.6,29.77,SSE,163,0.0,0.0,71,0.00,CLR,,0.00,WeatherDisplay:10.37,2013-05-22 00:06:00,
2013-05-21 20:12:00,79.6,69.8,29.77,SSE,163,0.0,2.3,72,0.00,CLR,,0.00,WeatherDisplay:10.37,2013-05-22 00:12:00,
2013-05-21 20:17:00,79.2,69.4,29.77,SSE,163,0.0,1.1,72,0.00,CLR,,0.00,WeatherDisplay:10.37,2013-05-22 00:17:00,
2013-05-21 20:22:00,79.0,69.6,29.77,SSE,160,0.3,2.0,73,0.00,CLR,,0.00,WeatherDisplay:10.37,2013-05-22 00:22:00,
2013-05-21 20:27:00,79.0,69.2,29.77,ENE,63,0.0,0.0,72,0.00,CLR,,0.00,WeatherDisplay:10.37,2013-05-22 00:27:00,
2013-05-21 20:33:00,79.0,69.6,29.77,ENE,63,0.0,0.0,73,0.00,CLR,,0.00,WeatherDisplay:10.37,2013-05-22 00:33:00,
2013-05-21 20:38:00,78.8,69.4,29.77,ENE,63,0.0,0.0,73,0.00,CLR,,0.00,WeatherDisplay:10.37,2013-05-22 00:38:00,
2013-05-21 20:43:00,78.5,69.5,29.77,ESE,103,0.3,1.1,74,0.00,CLR,,0.00,WeatherDisplay:10.37,2013-05-22 00:43:00,
2013-05-21 20:48:00,78.3,69.7,29.77,ESE,103,0.0,0.0,75,0.00,CLR,,0.00,WeatherDisplay:10.37,2013-05-22 00:48:00,
2013-05-21 20:53:00,77.9,69.3,29.77,ESE,103,0.0,1.1,75,0.00,CLR,,0.00,WeatherDisplay:10.37,2013-05-22 00:53:00,
2013-05-21 20:59:00,77.6,69.4,29.77,ESE,103,0.0,2.3,76,0.00,CLR,,0.00,WeatherDisplay:10.37,2013-05-22 00:59:00,
2013-05-21 21:04:00,77.4,69.2,29.76,SW,216,0.2,2.3,76,0.00,CLR,,0.00,WeatherDisplay:10.37,2013-05-22 01:04:00,
2013-05-21 21:09:00,77.0,69.2,29.76,South,171,0.1,1.1,77,0.00,CLR,,0.00,WeatherDisplay:10.37,2013-05-22 01:09:00,
2013-05-21 21:14:00,76.8,69.0,29.75,SSW,213,0.6,3.5,77,0.00,CLR,,0.00,WeatherDisplay:10.37,2013-05-22 01:14:00,
2013-05-21 21:19:00,76.7,69.3,29.75,WNW,300,0.1,1.1,78,0.00,CLR,,0.00,WeatherDisplay:10.37,2013-05-22 01:19:00,
2013-05-21 21:24:00,76.5,69.1,29.75,SE,145,0.0,0.0,78,0.00,CLR,,0.00,WeatherDisplay:10.37,2013-05-22 01:24:00,
2013-05-21 21:29:00,76.3,68.9,29.76,NW,317,0.1,1.0,78,0.00,CLR,,0.00,WeatherDisplay:10.37,2013-05-22 01:29:00,
2013-05-21 21:35:00,76.3,68.9,29.76,SW,230,0.0,2.3,78,0.00,CLR,,0.00,WeatherDisplay:10.37,2013-05-22 01:35:00,
2013-05-21 21:40:00,76.1,69.1,29.76,SW,230,0.0,1.1,79,0.00,CLR,,0.00,WeatherDisplay:10.37,2013-05-22 01:40:00,
2013-05-21 21:45:00,76.0,69.0,29.76,SW,230,0.1,1.1,79,0.00,CLR,,0.00,WeatherDisplay:10.37,2013-05-22 01:45:00,
2013-05-21 21:50:00,75.8,68.8,29.76,SW,230,0.0,0.0,79,0.00,CLR,,0.00,WeatherDisplay:10.37,2013-05-22 01:50:00,
2013-05-21 21:55:00,75.6,69.0,29.76,SW,230,0.0,0.0,80,0.00,CLR,,0.00,WeatherDisplay:10.37,2013-05-22 01:55:00,
2013-05-21 22:00:00,75.4,68.8,29.76,SW,236,0.1,0.0,80,0.00,CLR,,0.00,WeatherDisplay:10.37,2013-05-22 02:00:00,
2013-05-21 22:06:00,75.1,68.9,29.76,SW,217,0.4,2.3,81,0.00,CLR,,0.00,WeatherDisplay:10.37,2013-05-22 02:06:00,
2013-05-21 22:11:00,74.6,68.7,29.76,SSW,213,0.2,2.3,82,0.00,CLR,,0.00,WeatherDisplay:10.37,2013-05-22 02:11:00,
2013-05-21 22:16:00,74.0,68.5,29.75,SSW,194,0.4,2.3,83,0.00,CLR,,0.00,WeatherDisplay:10.37,2013-05-22 02:16:00,
2013-05-21 22:21:00,73.7,68.6,29.75,SSW,194,0.0,1.1,84,0.00,CLR,,0.00,WeatherDisplay:10.37,2013-05-22 02:21:00,
2013-05-21 22:26:00,73.5,68.7,29.75,SSW,194,0.0,0.0,85,0.00,CLR,,0.00,WeatherDisplay:10.37,2013-05-22 02:26:00,
2013-05-21 22:31:00,73.3,68.5,29.75,SSW,194,0.0,0.0,85,0.00,CLR,,0.00,WeatherDisplay:10.37,2013-05-22 02:31:00,
2013-05-21 22:36:00,73.2,68.4,29.76,SSW,194,0.0,2.3,85,0.00,CLR,,0.00,WeatherDisplay:10.37,2013-05-22 02:36:00,
2013-05-21 22:41:00,73.2,68.4,29.75,SSW,194,0.0,0.0,85,0.00,CLR,,0.00,WeatherDisplay:10.37,2013-05-22 02:41:00,
2013-05-21 22:46:00,73.0,68.2,29.76,SSW,194,0.0,0.0,85,0.00,CLR,,0.00,WeatherDisplay:10.37,2013-05-22 02:46:00,
2013-05-21 22:52:00,73.0,68.2,29.76,SSW,194,0.0,0.0,85,0.00,CLR,,0.00,WeatherDisplay:10.37,2013-05-22 02:52:00,
2013-05-21 22:57:00,72.8,68.4,29.76,SSW,194,0.0,0.0,86,0.00,CLR,,0.00,WeatherDisplay:10.37,2013-05-22 02:57:00,
2013-05-21 23:02:00,72.8,68.4,29.77,SSW,194,0.0,0.0,86,0.00,CLR,,0.00,WeatherDisplay:10.37,2013-05-22 03:02:00,
2013-05-21 23:07:00,72.7,68.3,29.76,SSW,194,0.0,0.0,86,0.00,CLR,,0.00,WeatherDisplay:10.37,2013-05-22 03:07:00,
2013-05-21 23:13:00,72.5,68.1,29.76,SSW,194,0.0,1.1,86,0.00,CLR,,0.00,WeatherDisplay:10.37,2013-05-22 03:13:00,
2013-05-21 23:18:00,72.5,68.1,29.76,SSW,194,0.0,0.0,86,0.00,CLR,,0.00,WeatherDisplay:10.37,2013-05-22 03:18:00,
2013-05-21 23:23:00,72.3,68.2,29.77,SSW,194,0.0,0.0,87,0.00,CLR,,0.00,WeatherDisplay:10.37,2013-05-22 03:23:00,
2013-05-21 23:28:00,72.1,68.0,29.77,SSW,194,0.0,1.1,87,0.00,CLR,,0.00,WeatherDisplay:10.37,2013-05-22 03:28:00,
2013-05-21 23:33:00,71.8,67.7,29.76,SSW,194,0.2,1.1,87,0.00,CLR,,0.00,WeatherDisplay:10.37,2013-05-22 03:33:00,
2013-05-21 23:38:00,71.6,67.9,29.76,SSW,194,0.0,0.0,88,0.00,CLR,,0.00,WeatherDisplay:10.37,2013-05-22 03:38:00,
2013-05-21 23:43:00,71.5,67.8,29.76,East,81,0.1,1.1,88,0.00,CLR,,0.00,WeatherDisplay:10.37,2013-05-22 03:43:00,
2013-05-21 23:49:00,71.5,68.1,29.76,East,81,0.0,0.0,89,0.00,CLR,,0.00,WeatherDisplay:10.37,2013-05-22 03:49:00,
2013-05-21 23:54:00,71.5,67.8,29.78,East,81,0.0,0.0,88,0.00,CLR,,0.00,WeatherDisplay:10.37,2013-05-22 03:54:00,
2013-05-21 23:59:00,71.5,67.8,29.78,East,81,0.0,0.0,88,0.00,CLR,,0.00,WeatherDisplay:10.37,2013-05-22 03:59:00,